Los Angeles, CA

10:22 AM PDT on May 25, 2017 (GMT -0700)
Los Angeles International

Weather History for KLAX - February, 2012

Change the Weather History Date:

Saturday, February 25, 2012

  Actual Average Record
Temperature  
Mean Temperature 56 °F 57 °F  
Max Temperature 60 °F 64 °F 84 °F (1989)
Min Temperature 52 °F 51 °F 39 °F (1962)
Degree Days  
Heating Degree Days 9 8  
Month to date heating degree days 174 200  
Since 1 July heating degree days 893 904  
Cooling Degree Days 0 0  
Month to date cooling degree days 0 0  
Year to date cooling degree days 10 4  
Growing Degree Days 6 (Base 50)    
Moisture  
Dew Point 48 °F    
Average Humidity 76    
Maximum Humidity 89    
Minimum Humidity 62    
Precipitation  
Precipitation 0.00 in 0.11 in 1.86 in (2001)
Month to date precipitation 0.12 2.93  
Year to date precipitation 1.31 5.64  
Since 1 July precipitation 4.31  
Sea Level Pressure  
Sea Level Pressure 30.07 in    
Wind  
Wind Speed 6 mph (WSW)    
Max Wind Speed 17 mph    
Max Gust Speed 21 mph    
Visibility 10 miles    
Events      
T = Trace of Precipitation, MM = Missing Value Source: NWS Daily Summary

Daily Weather History Graph

Daily Weather History Graph

Search for Another Location

Airport or City:

Trip Planner

Search our weather history database for the weather conditions in past years. The results will help you decide how hot, cold, wet, or windy it might be!

Date:

Astronomy

Feb. 25, 2012 Rise Set
Actual Time 6:27 AM PST 5:46 PM PST
Civil Twilight 6:02 AM PST 6:11 PM PST
Nautical Twilight 5:33 AM PST 6:40 PM PST
Astronomical Twilight 5:04 AM PST 7:09 PM PST
Moon 8:07 AM PST 9:36 PM PST
Length of Visible Light 12h 09m
Length of Day
11h 18m
Waxing Crescent, 14% of the Moon is Illuminated
Feb 25
Waxing Crescent
Feb 29
First Quarter
Mar 8
Full
Mar 14
Last Quarter
Mar 22
New

Hourly Weather History & Observations

Time (PST) Temp. Dew Point Humidity Pressure Visibility Wind Dir Wind Speed Gust Speed Precip Events Conditions
12:53 AM 55.0 °F 48.9 °F 80% 30.16 in 10.0 mi Calm Calm - N/A   Overcast
1:53 AM 55.0 °F 50.0 °F 83% 30.15 in 10.0 mi West 5.8 mph - N/A   Overcast
2:53 AM 54.0 °F 50.0 °F 86% 30.12 in 10.0 mi WSW 3.5 mph - N/A   Overcast
3:53 AM 54.0 °F 48.9 °F 83% 30.12 in 10.0 mi West 5.8 mph - N/A   Overcast
3:59 AM 53.6 °F 48.2 °F 82% 30.12 in 10.0 mi West 6.9 mph - N/A   Overcast
4:32 AM 53.6 °F 48.2 °F 82% 30.12 in 10.0 mi WSW 4.6 mph - N/A   Overcast
4:53 AM 54.0 °F 48.9 °F 83% 30.12 in 10.0 mi West 5.8 mph - N/A   Overcast
5:53 AM 55.0 °F 48.0 °F 77% 30.12 in 10.0 mi Calm Calm - N/A   Overcast
6:53 AM 55.0 °F 48.0 °F 77% 30.13 in 10.0 mi NW 3.5 mph - N/A   Overcast
7:53 AM 55.9 °F 48.0 °F 75% 30.14 in 10.0 mi North 4.6 mph - N/A   Overcast
8:53 AM 57.0 °F 46.9 °F 69% 30.14 in 7.0 mi Calm Calm - N/A   Mostly Cloudy
9:37 AM 57.2 °F 46.4 °F 67% 30.13 in 6.0 mi SSW 4.6 mph - N/A   Haze
9:53 AM 59.0 °F 46.9 °F 64% 30.12 in 7.0 mi West 5.8 mph - N/A   Scattered Clouds
10:53 AM 59.0 °F 48.0 °F 67% 30.12 in 10.0 mi WSW 9.2 mph - N/A   Scattered Clouds
11:53 AM 59.0 °F 48.0 °F 67% 30.10 in 10.0 mi WSW 12.7 mph - N/A   Partly Cloudy
12:53 PM 59.0 °F 48.0 °F 67% 30.06 in 10.0 mi West 13.8 mph - N/A   Scattered Clouds
1:53 PM 59.0 °F 48.0 °F 67% 30.04 in 10.0 mi WSW 13.8 mph - N/A   Scattered Clouds
2:53 PM 57.9 °F 48.0 °F 70% 30.02 in 10.0 mi West 13.8 mph - N/A   Mostly Cloudy
2:56 PM 57.2 °F 48.2 °F 72% 30.02 in 10.0 mi West 13.8 mph - N/A   Mostly Cloudy
3:53 PM 57.0 °F 48.0 °F 72% 30.01 in 10.0 mi West 13.8 mph - N/A   Mostly Cloudy
4:53 PM 55.9 °F 48.9 °F 77% 29.99 in 10.0 mi WSW 9.2 mph - N/A   Mostly Cloudy
5:53 PM 55.0 °F 48.9 °F 80% 29.99 in 10.0 mi SW 5.8 mph - N/A   Overcast
6:53 PM 55.0 °F 48.9 °F 80% 30.00 in 10.0 mi West 6.9 mph - N/A   Overcast
7:53 PM 54.0 °F 48.0 °F 80% 29.99 in 10.0 mi West 4.6 mph - N/A   Scattered Clouds
8:53 PM 54.0 °F 48.0 °F 80% 29.99 in 10.0 mi SSW 3.5 mph - N/A   Partly Cloudy
9:53 PM 54.0 °F 48.0 °F 80% 29.99 in 10.0 mi Calm Calm - N/A   Mostly Cloudy
10:33 PM 53.6 °F 48.2 °F 82% 29.98 in 10.0 mi Calm Calm - N/A   Partly Cloudy
10:53 PM 53.1 °F 48.0 °F 83% 29.98 in 9.0 mi Calm Calm - N/A   Partly Cloudy
11:53 PM 52.0 °F 46.9 °F 83% 29.97 in 10.0 mi Calm Calm - N/A   Partly Cloudy